TimeEST,TemperatureF,Dew PointF,Humidity,Sea Level PressureIn,VisibilityMPH,Wind Direction,Wind SpeedMPH,Gust SpeedMPH,PrecipitationIn,Events,Conditions,WindDirDegrees,DateUTC
12:53 AM,18.0,12.0,78,29.91,10.0,Calm,Calm,-,N/A,,Overcast,0,2013-02-06 05:53:00
1:53 AM,18.0,12.9,81,29.92,10.0,Calm,Calm,-,N/A,,Overcast,0,2013-02-06 06:53:00
2:53 AM,18.0,14.0,84,29.92,10.0,SE,3.5,-,N/A,,Overcast,130,2013-02-06 07:53:00
3:51 AM,19.4,12.2,74,29.91,10.0,Calm,Calm,-,N/A,,Overcast,0,2013-02-06 08:51:00
3:53 AM,19.9,14.0,78,29.93,10.0,Calm,Calm,-,N/A,,Overcast,0,2013-02-06 08:53:00
4:53 AM,21.0,15.1,78,29.95,5.0,Calm,Calm,-,0.00,Snow,Light Snow,0,2013-02-06 09:53:00
5:53 AM,21.0,17.1,85,29.96,9.0,East,3.5,-,0.00,,Overcast,90,2013-02-06 10:53:00
6:53 AM,23.0,18.0,81,29.97,1.8,Calm,Calm,-,0.00,Snow,Light Snow,0,2013-02-06 11:53:00
7:12 AM,23.0,19.9,88,29.96,3.0,NNW,3.5,-,0.00,Snow,Light Snow,330,2013-02-06 12:12:00
7:53 AM,24.1,21.0,88,29.99,6.0,NNW,4.6,-,0.00,,Overcast,330,2013-02-06 12:53:00
8:03 AM,24.1,21.0,88,29.98,1.5,NNW,6.9,-,0.00,Snow,Light Snow,340,2013-02-06 13:03:00
8:14 AM,24.1,21.0,88,29.98,0.8,NW,5.8,-,0.01,Snow,Light Snow,320,2013-02-06 13:14:00
8:27 AM,24.1,21.9,91,29.99,1.0,NW,8.1,-,0.01,Snow,Light Snow,320,2013-02-06 13:27:00
8:33 AM,24.1,21.9,91,29.99,0.8,NW,9.2,-,0.01,Snow,Light Snow,310,2013-02-06 13:33:00
8:43 AM,25.0,23.0,92,30.00,0.8,WNW,9.2,-,0.01,Snow,Light Snow,290,2013-02-06 13:43:00
8:53 AM,27.0,24.1,89,30.02,0.5,West,13.8,-,0.01,Fog-Snow,Snow,280,2013-02-06 13:53:00
9:30 AM,27.0,23.0,85,30.03,0.8,WNW,16.1,-,0.00,Snow,Light Snow,290,2013-02-06 14:30:00
9:39 AM,27.0,23.0,85,30.04,0.8,WNW,17.3,24.2,0.00,Snow,Light Snow,290,2013-02-06 14:39:00
9:53 AM,27.0,23.0,85,30.06,1.8,WNW,15.0,-,0.00,Snow,Light Snow,290,2013-02-06 14:53:00
10:04 AM,26.1,21.0,81,30.05,1.2,NW,17.3,-,0.00,Snow,Light Snow,310,2013-02-06 15:04:00
10:14 AM,25.0,19.0,78,30.06,3.0,WNW,21.9,28.8,0.00,Snow,Light Snow,300,2013-02-06 15:14:00
10:53 AM,26.1,18.0,71,30.10,6.0,NW,23.0,28.8,0.00,Snow,Light Snow,310,2013-02-06 15:53:00
11:15 AM,26.1,16.0,66,30.09,8.0,NW,24.2,28.8,0.00,,Overcast,310,2013-02-06 16:15:00
11:53 AM,25.0,15.1,66,30.13,8.0,WNW,20.7,-,0.00,,Overcast,300,2013-02-06 16:53:00
12:53 PM,26.1,9.0,49,30.15,9.0,WNW,20.7,31.1,0.00,,Clear,300,2013-02-06 17:53:00
1:53 PM,25.0,5.0,43,30.17,10.0,WNW,20.7,-,N/A,,Clear,290,2013-02-06 18:53:00
2:53 PM,24.1,6.1,46,30.20,10.0,WNW,17.3,-,N/A,,Clear,300,2013-02-06 19:53:00
3:53 PM,23.0,7.0,50,30.24,10.0,WNW,21.9,-,N/A,,Clear,300,2013-02-06 20:53:00
4:53 PM,21.0,6.1,53,30.27,10.0,WNW,16.1,20.7,N/A,,Clear,290,2013-02-06 21:53:00
5:53 PM,19.9,5.0,52,30.31,10.0,WNW,13.8,-,N/A,,Clear,300,2013-02-06 22:53:00
6:53 PM,17.1,6.1,62,30.34,10.0,West,5.8,-,N/A,,Clear,270,2013-02-06 23:53:00
7:53 PM,15.1,5.0,64,30.35,10.0,Calm,Calm,-,N/A,,Clear,0,2013-02-07 00:53:00
8:53 PM,12.9,5.0,71,30.39,10.0,NNW,5.8,-,N/A,,Clear,330,2013-02-07 01:53:00
9:53 PM,12.0,5.0,73,30.41,10.0,NW,4.6,-,N/A,,Clear,320,2013-02-07 02:53:00
10:53 PM,10.0,3.9,76,30.40,10.0,Calm,Calm,-,N/A,,Clear,0,2013-02-07 03:53:00
11:53 PM,3.9,1.0,88,30.42,10.0,Calm,Calm,-,N/A,,Clear,0,2013-02-07 04:53:00